{"data":{"norad_id":63830,"intl_designator":"2025-092AC","name":"STARLINK-33984","alt_names":[],"object_type":"PAYLOAD","status":"ACTIVE","operator":null,"country":"US","launch_date":"2025-05-04","launch_site_code":"AFETR","launch_vehicle":null,"mission":null,"orbit_class":"UNKNOWN","rcs_meters":null,"size_class":null,"mass_kg":null,"dimensions":null,"purposes":["comms"],"wikipedia_slug":null,"has_3d_model":false,"image_url":null,"decayed_at":null,"tle_current":{"epoch":"2026-05-25T04:17:17.058624Z","epoch_age_seconds":63205,"freshness":"FRESH","line1":"1 63830U 25092AC  26145.17866966  .00015435  00000+0  56901-3 0  9996","line2":"2 63830  43.0009 100.4795 0001191 277.3433  82.7283 15.27592883 60315","mean_motion":15.27592883,"eccentricity":0.0001191,"inclination_deg":43.0009,"raan_deg":100.4795,"arg_perigee_deg":277.3433,"mean_anomaly_deg":82.7283,"bstar":0.00056901,"rev_number":6031,"period_min":94.265953712223,"perigee_km":482.1933573045,"apogee_km":483.82768264376,"semimajor_km":6861.1475199741,"source":"CELESTRAK","updated_at":"2026-05-25T13:38:20.145122Z"}}}